Regional Weather Roundup
Issued by NWS

Home | Current Version | Previous Version | Graphics & Text | Print | Product List | Glossary On
Versions: 1 2 3 4 5 6 7 8 9 10 11 12 13 14 15 16 17 18 19 20 21 22 23 24 25 26 27 28 29 30 31 32 33 34 35 36 37 38 39 40 41 42 43 44 45 46 47 48 49 50
151
ASUS43 KIND 120609
RWRIN

WEATHER ROUNDUP FOR INDIANA
NATIONAL WEATHER SERVICE INDIANAPOLIS IN
100 AM EST FRI FEB 12 2016

NOTE: "FAIR" INDICATES FEW OR NO CLOUDS BELOW 12,000 FEET WITH NO
SIGNIFICANT WEATHER AND/OR OBSTRUCTIONS TO VISIBILITY.

* - STATION DOES NOT REPORT WEATHER SUCH AS PRECIPITATION OR FOG.

+ - STATION NOT QUALITY CONTROLLED BY THE NATIONAL WEATHER SERVICE.
    USE DATA WITH CAUTION...ESPECIALLY DEWPOINT AND RELATIVE
    HUMIDITY OBSERVATIONS.

INZ001>003-010>013-019-020-120700-
NORTHWEST INDIANA

CITY           SKY/WX    TMP DP  RH WIND       PRES   REMARKS
GARY /AIRPORT/ CLOUDY    18   7  62 CALM      30.27S
KNOX *+        CLOUDY    12   9  85 CALM      30.25F
LA PORTE +     CLOUDY     8   6  90 CALM      30.25F
6HR MIN TEMP:   1; 6HR MAX TEMP:  14;

MICHIGAN CITY+ CLOUDY    10   5  79 S3        30.25F
MONTICELLO +   CLOUDY    17   6  62 W3        30.26F
6HR MIN TEMP:  15; 6HR MAX TEMP:  20;

RENSSELAER +   MOCLDY    19  10  68 SW3       30.26F
VALPARAISO     CLOUDY    13   8  81 CALM      30.25F
6HR MIN TEMP:  10; 6HR MAX TEMP:  15;


$$

LMZ046-743>745-120700-
SOUTHERN LAKE MICHIGAN

STATION/POSITION TIME  TEMP    WIND        PRES    WAVE
                       AIR SEA DIR/SP/G            HT
                 (UTC) (F)     (DEG/KT/KT) (MB)    (FT)
BURNS HARBOR     0500   17     190/  6/  8 1025.1F
MICHIGAN CITY    0550   17     180/ 10/ 11   N/A

$$

INZ004-005-014>016-021>024-120700-
NORTH CENTRAL INDIANA

CITY           SKY/WX    TMP DP  RH WIND       PRES   REMARKS
GOSHEN         PTCLDY     3  -1  83 S5        30.24F WCI  -6
6HR MIN TEMP:   2; 6HR MAX TEMP:  18;

LOGANSPORT +   CLOUDY    18   9  68 CALM      30.27S
PERU/GRISSOM   CLOUDY    14  10  82 S3        30.23F
6HR MIN TEMP:  13; 6HR MAX TEMP:  19;

ROCHESTER +    CLEAR     10   3  72 CALM      30.25F
SOUTH BEND     CLOUDY     5   1  83 CALM      30.24F
6HR MIN TEMP:   1; 6HR MAX TEMP:  12;

WARSAW +       CLOUDY     9   5  85 CALM      30.24F

$$

INZ006>009-017-018-025>027-120700-
NORTHEAST INDIANA

CITY           SKY/WX    TMP DP  RH WIND       PRES   REMARKS
ANGOLA *+      CLEAR      3   1  92 CALM      30.21F
AUBURN +       CLEAR     14   7  73 CALM      30.24F
FORT WAYNE     PTCLDY    12   7  80 SW6       30.26F WCI   3
6HR MIN TEMP:  11; 6HR MAX TEMP:  20;

HUNTINGTON +   CLOUDY     9   4  80 CALM      30.25F
6HR MIN TEMP:   8; 6HR MAX TEMP:  18;


$$

INZ028-029-035-036-043>045-051>053-120700-
WEST CENTRAL INDIANA

CITY           SKY/WX    TMP DP  RH WIND       PRES   REMARKS
GREENCASTLE +  CLOUDY    21  10  63 CALM      30.25F
LAFAYETTE      CLOUDY    18  11  74 CALM      30.27F
6HR MIN TEMP:  18; 6HR MAX TEMP:  20;

TERRE HAUTE    CLOUDY    23  14  68 CALM      30.27F
6HR MIN TEMP:  21; 6HR MAX TEMP:  24;


$$

INZ030>032-037>040-046>048-054>057-064-065-120700-
CENTRAL INDIANA

CITY           SKY/WX    TMP DP  RH WIND       PRES   REMARKS
FISHERS *+     MOCLDY    19  16  86 CALM      30.25F
FRANKFORT +    CLOUDY    19   7  59 CALM      30.26F
6HR MIN TEMP:  19; 6HR MAX TEMP:  22;

GREENWOOD *+   CLOUDY    19  12  73 CALM      30.25F
INDIANAPOLIS   CLOUDY    19   9  65 S3        30.24F
6HR MIN TEMP:  19; 6HR MAX TEMP:  22;

-EAGLE CREEK   CLOUDY    19  13  77 CALM      30.24F
6HR MIN TEMP:  19; 6HR MAX TEMP:  23;

KOKOMO *+      MOCLDY    12   5  73 CALM      30.25F
6HR MIN TEMP:  12; 6HR MAX TEMP:  19;

MARION +       CLOUDY    12   2  65 CALM      30.26S
MT COMFORT *+  MOCLDY    19  10  68 SW5       30.25F WCI  13
SHELBYVILLE    CLOUDY    19  10  68 CALM      30.25F
6HR MIN TEMP:  18; 6HR MAX TEMP:  21;

ZIONSVILLE +   CLOUDY    19  12  76 CALM      30.25F
6HR MIN TEMP:  19; 6HR MAX TEMP:  21;


$$

INZ033-034-041-042-049-050-058-059-120700-
EAST CENTRAL INDIANA

CITY           SKY/WX    TMP DP  RH WIND       PRES   REMARKS
MUNCIE         CLOUDY    13   7  77 CALM      30.24F
6HR MIN TEMP:  13; 6HR MAX TEMP:  19;


$$

INZ060-061-067>069-081>083-085>088-120700-
SOUTHWEST INDIANA

CITY           SKY/WX    TMP DP  RH WIND       PRES   REMARKS
EVANSVILLE     CLOUDY    28  14  55 NE6       30.25F WCI  22
6HR MIN TEMP:  28; 6HR MAX TEMP:  31;

HUNTINGBURG *+ CLOUDY    25  10  54 NE5       30.26F WCI  19
6HR MIN TEMP:  25; 6HR MAX TEMP:  27;

WASHINGTON +   CLOUDY    25  11  56 CALM      30.26F
6HR MIN TEMP:  24; 6HR MAX TEMP:  26;


$$

INZ062-063-066-070>080-084-089>092-120700-
SOUTH CENTRAL AND SOUTHEAST INDIANA

CITY           SKY/WX    TMP DP  RH WIND       PRES   REMARKS
BEDFORD +      CLOUDY    23  14  68 E3        30.25
BLOOMINGTON    CLOUDY    22  11  62 CALM      30.25F
6HR MIN TEMP:  21; 6HR MAX TEMP:  24;

MADISON *+     CLOUDY    21   9  58 E5        30.27F WCI  15
NORTH VERNON + CLOUDY    23   9  54 CALM      30.27F
SEYMOUR +      CLOUDY    23  12  63 CALM      30.28S

$$





USA.gov is the U.S. government's official web portal to all federal, state and local government web resources and services.